Location: Namasale
(1.5000°N, 32.6167°E)
Time: 23:02:12
(UTC+00:00)

Tiros 1 - Pass Details

Date: 25 April 2021
Orbit: 630 x 664 km, 48.4° (Epoch: 07 May)

Event Time Altitude Azimuth Distance (km) Brightness Sun altitude
Exits shadow 01:45:50 43° 114° (ESE) 911 8.1 -29.1°
Drops below altitude 10° 01:49:58 10° 56° (ENE) 2,048 10.6 -28.1°
Sets 01:52:22 0° 50° (NE) 2,950 11.5 -27.6°
